This is the latest recevied weather packets stored in our database for station/object JH0FOG-13. If no packets are shown the sender has not sent any weather packets the latest 10 day(s).
| Time | Temp. | Humidity | Pressure | Rain* | Wind** | Luminosity | Snow |
|---|---|---|---|---|---|---|---|
| 1777880402 | 15.56° C | 77% | 1004.6 hPa | 0 mm | - | - | - |
| 1777879202 | 15.56° C | 76% | 1004.3 hPa | 0 mm | - | - | - |
| 1777878002 | 15.56° C | 75% | 1004.1 hPa | 0 mm | - | - | - |
| 1777876802 | 15.56° C | 76% | 1003.6 hPa | 0 mm | - | - | - |
| 1777875602 | 15.56° C | 78% | 1003.5 hPa | 0 mm | - | - | - |
| 1777874401 | 15° C | 80% | 1003 hPa | 0 mm | - | - | - |
| 1777873201 | 15° C | 81% | 1002.9 hPa | 0 mm | - | - | - |
| 1777872002 | 15° C | 81% | 1002.7 hPa | 0 mm | - | - | - |
| 1777870801 | 15° C | 84% | 1002.8 hPa | 0 mm | - | - | - |
| 1777869601 | 15° C | 85% | 1002.4 hPa | 0 mm | - | - | - |
| 1777868401 | 14.44° C | 87% | 1002.4 hPa | 0.25 mm | - | - | - |
| 1777867201 | 14.44° C | 87% | 1002.1 hPa | 0.25 mm | - | - | - |
| 1777866001 | 14.44° C | 88% | 1002.1 hPa | 0.76 mm | - | - | - |
| 1777864802 | 14.44° C | 89% | 1002 hPa | 0.51 mm | - | - | - |
| 1777863602 | 14.44° C | 89% | 1001.8 hPa | 0.76 mm | - | - | - |
| 1777862402 | 14.44° C | 91% | 1002 hPa | 0.25 mm | - | - | - |
| 1777861202 | 14.44° C | 92% | 1002.2 hPa | 0.76 mm | - | - | - |
| 1777860002 | 13.89° C | 92% | 1002.2 hPa | 1.78 mm | - | - | - |
| 1777858802 | 14.44° C | 92% | 1001.8 hPa | 4.57 mm | - | - | - |
| 1777857602 | 14.44° C | 92% | 1002.2 hPa | 4.57 mm | - | - | - |
| 1777856402 | 14.44° C | 91% | 1002.2 hPa | 3.3 mm | - | - | - |
| 1777855202 | 15° C | 88% | 1002.2 hPa | 0.51 mm | - | - | - |
| 1777854002 | 15° C | 88% | 1001.8 hPa | 0 mm | - | - | - |
| 1777852802 | 15° C | 88% | 1001.7 hPa | 0.25 mm | - | - | - |
| 1777851602 | 15° C | 89% | 1001.7 hPa | 0.76 mm | - | - | - |
* Rain latest hour (hover to see other rain measurements)
** Current wind speed in m/s (hover to see current wind gust speed)